Location: Austin
(30.3000°N, 97.7500°W)
Time: 22:44:14
(UTC-06:00)

Cosmos 1346 Rocket - Pass Details

Date: 03 December 2025
Orbit: 479 x 491 km, 81.2° (Epoch: 07 December)

Event Time Altitude Azimuth Distance (km) Brightness Sun altitude
Rises 06:40:24 0° 213° (SSW) 2,547 6.1 -7.0°
Reaches altitude 10° 06:42:49 10° 228° (SW) 1,672 5.0 -6.6°
Maximum altitude 06:45:46 23° 282° (WNW) 1,080 3.7 -6.0°
Drops below altitude 10° 06:48:46 10° 337° (NNW) 1,684 4.9 -5.4°
Sets 06:51:12 0° 352° (N) 2,570 5.9 -4.9°
